Regional Weather Roundup
Issued by NWS Sioux Falls, SD

Home | Current Version | Previous Version | Graphics & Text | Print | Product List | Glossary On
Versions: 1 2 3 4 5 6 7 8 9 10 11 12 13 14 15 16 17 18 19 20 21 22 23 24 25 26 27 28 29 30 31 32 33 34 35 36 37 38 39 40 41 42 43 44 45 46 47 48 49 50
000
ASUS43 KFSD 210202
RWRFSD

WEATHER ROUNDUP FOR SE SOUTH DAKOTA/SW MINNESOTA/NW IOWA
NATIONAL WEATHER SERVICE SIOUX FALLS SD
900 PM CDT FRI OCT 20 2017

NOTE: "FAIR" INDICATES FEW OR NO CLOUDS BELOW 12,000 FEET WITH NO
SIGNIFICANT WEATHER AND OR OBSTRUCTIONS TO VISIBILITY.


SDZ038>040-050-052>070-210300-
SOUTHEAST SOUTH DAKOTA

CITY           SKY/WX    TMP DP  RH WIND       PRES   REMARKS
BROOKINGS      CLOUDY    68  57  68 S21G31    29.55S
CHAMBERLAIN    CLOUDY    69  57  64 S15       29.43S
HURON          PTCLDY    70  57  63 S16G25    29.45S
MADISON        FAIR      66  59  77 S21G30    29.54F
MITCHELL       PTCLDY    72  57  59 S17G25    29.49S
SIOUX FALLS    MOCLDY    71  59  65 S21G35    29.58S
WINNER         FAIR      70  54  56 S23G31    29.41F
YANKTON        PTCLDY    70  59  68 SE13      29.56S
$$

MNZ071-072-080-081-089-090-097-098-210300-
SOUTHWEST MINNESOTA

CITY           SKY/WX    TMP DP  RH WIND       PRES   REMARKS
FAIRMONT       CLOUDY    65  52  62 S21G28    29.71F
JACKSON        CLOUDY    66  54  63 S17G25    29.69F
MARSHALL       CLOUDY    69  56  62 S23G30    29.58F
MONTEVIDEO     PTCLDY    68  55  64 S13G20    29.57F
PIPESTONE      CLOUDY    66  55  68 S17G25    29.61S
REDWOOD FALLS  CLEAR     68  53  58 S24G31    29.63S
TRACY          CLOUDY    69  58  66 S17G28    29.62F
WORTHINGTON    CLEAR     66  56  70 S17G25    29.65S
$$

IAZ001>003-012>014-020>022-031-032-NEZ013-014-SDZ071-210300-
NORTHWEST IOWA

CITY           SKY/WX    TMP DP  RH WIND       PRES   REMARKS
CHEROKEE       MOCLDY    68  57  67 S23G30    29.68S
DENISON        CLEAR     66  57  72 S20G26    29.73S
ESTHERVILLE    CLOUDY    65  54  67 S21G31    29.70F
LE MARS        CLEAR     70  59  68 S20G32    29.62S
ORANGE CITY    CLEAR     70  61  73 S15G23    29.63F
SHELDON        CLEAR     68  57  68 S17G29    29.62F
SIOUX CITY     CLOUDY    70  59  68 S17G35    29.63F
SPENCER        CLEAR     67  55  65 S23G32    29.68F
STORM LAKE     PTCLDY    66  55  68 S21G32    29.71R
$$

ABBREVIATIONS USED IN REMARKS
   TC - TEMPERATURE IN CELSIUS
  WCI - WIND CHILL INDEX
   HX - HEAT INDEX
  VSB - VISIBILITY




USA.gov is the U.S. government's official web portal to all federal, state and local government web resources and services.